H1 CPF 2 NER 2021 6 4 9 155 01 glonass107 H2 0706501 9107 32393 2021 6 4 0 0 0 2021 6 7 23 45 0 900 1 1 0 0 0 1 H9 10 0 59369 0.00000 0 22670994.338 -4490533.406 -10813627.184 10 0 59369 900.00000 0 23821971.879 -4622009.629 -7883363.451 10 0 59369 1800.00000 0 24591432.196 -4809753.538 -4800073.204 10 0 59369 2700.00000 0 24963778.443 -4999728.541 -1623587.726 10 0 59369 3600.00000 0 24936604.556 -5136679.517 1584425.228 10 0 59369 4500.00000 0 24520730.130 -5166706.439 4761658.494 10 0 59369 5400.00000 0 23739699.492 -5039787.718 7846377.190 10 0 59369 6300.00000 0 22628765.454 -4712145.738 10778621.152 10 0 59369 7200.00000 0 21233400.151 -4148353.487 13501374.197 10 0 59369 8100.00000 0 19607395.355 -3323092.005 15961677.036 10 0 59369 9000.00000 0 17810631.947 -2222482.959 18111661.721 10 0 59369 9900.00000 0 15906612.246 -844938.646 19909487.062 10 0 59369 10800.00000 0 13959858.768 798508.038 21320156.569 10 0 59369 11700.00000 0 12033288.537 2684409.163 22316202.849 10 0 59369 12600.00000 0 10185673.029 4777635.734 22878225.007 10 0 59369 13500.00000 0 8469290.058 7032610.757 22995268.590 10 0 59369 14400.00000 0 6927865.682 9394991.046 22665040.650 10 0 59369 15300.00000 0 5594892.013 11803728.439 21893955.683 10 0 59369 16200.00000 0 4492390.802 14193425.107 20697011.480 10 0 59369 17100.00000 0 3630173.891 16496885.204 19097497.160 10 0 59369 18000.00000 0 3005630.699 18647756.569 17126538.947 10 0 59369 18900.00000 0 2604050.609 20583152.335 14822492.442 10 0 59369 19800.00000 0 2399465.494 22246142.967 12230193.115 10 0 59369 20700.00000 0 2355975.696 23588014.451 9400079.799 10 0 59369 21600.00000 0 2429502.190 24570198.191 6387208.410 10 0 59369 22500.00000 0 2569889.643 25165791.911 3250175.513 10 0 59369 23400.00000 0 2723270.235 25360608.079 49973.242 10 0 59369 24300.00000 0 2834587.077 25153706.380 -3151201.487 10 0 59369 25200.00000 0 2850169.411 24557388.568 -6291159.730 10 0 59369 26100.00000 0 2720249.788 23596656.744 -9308930.972 10 0 59369 27000.00000 0 2401316.062 22308158.705 -12145947.377 10 0 59369 27900.00000 0 1858198.281 20738665.486 -14747178.659 10 0 59369 28800.00000 0 1065802.022 18943145.722 -17062195.559 10 0 59369 29700.00000 0 10414.803 16982518.022 -19046141.693 10 0 59369 30600.00000 0 -1309469.739 14921175.636 -20660595.604 10 0 59369 31500.00000 0 -2882844.815 12824386.813 -21874307.079 10 0 59369 32400.00000 0 -4686414.039 10755678.920 -22663794.480 10 0 59369 33300.00000 0 -6685336.908 8774314.584 -23013792.474 10 0 59369 34200.00000 0 -8834465.933 6932964.073 -22917542.295 10 0 59369 35100.00000 0 -11080024.955 5275669.563 -22376919.595 10 0 59369 36000.00000 0 -13361659.987 3836184.787 -21402397.701 10 0 59369 36900.00000 0 -15614778.452 2636757.938 -20012846.997 10 0 59369 37800.00000 0 -17773080.809 1687407.404 -18235174.006 10 0 59369 38700.00000 0 -19771180.390 985719.466 -16103806.498 10 0 59369 39600.00000 0 -21547203.244 517175.685 -13660033.832 10 0 59369 40500.00000 0 -23045260.372 255995.599 -10951214.379 10 0 59369 41400.00000 0 -24217689.700 166458.907 -8029864.496 10 0 59369 42300.00000 0 -25026974.129 204651.335 -4952645.987 10 0 59369 43200.00000 0 -25447255.177 320560.366 -1779271.032 10 0 59369 44100.00000 0 -25465378.566 460432.166 1428654.423 10 0 59369 45000.00000 0 -25081427.187 569289.822 4608826.448 10 0 59369 45900.00000 0 -24308718.535 593505.909 7699454.653 10 0 59369 46800.00000 0 -23173266.126 483319.928 10640465.594 10 0 59369 47700.00000 0 -21712726.822 195193.235 13374674.156 10 0 59369 48600.00000 0 -19974877.832 -306099.182 15848899.643 10 0 59369 49500.00000 0 -18015686.906 -1045729.752 18015004.463 10 0 59369 50400.00000 0 -15897056.458 -2037506.943 19830834.725 10 0 59369 51300.00000 0 -13684335.993 -3283048.224 21261044.216 10 0 59369 52200.00000 0 -11443706.854 -4771473.719 22277785.586 10 0 59369 53100.00000 0 -9239548.693 -6479634.865 22861255.142 10 0 59369 54000.00000 0 -7131897.580 -8372869.884 23000080.660 10 0 59369 54900.00000 0 -5174101.753 -10406255.689 22691544.645 10 0 59369 55800.00000 0 -3410772.648 -12526304.799 21941638.607 10 0 59369 56700.00000 0 -1876116.279 -14673037.138 20764947.242 10 0 59369 57600.00000 0 -592714.032 -16782340.683 19184364.615 10 0 59369 58500.00000 0 429196.966 -18788522.537 17230647.739 10 0 59369 59400.00000 0 1191914.854 -20626943.890 14941816.127 10 0 59369 60300.00000 0 1709928.699 -22236628.615 12362408.927 10 0 59369 61200.00000 0 2009054.611 -23562736.063 9542614.239 10 0 59369 62100.00000 0 2125090.197 -24558794.320 6537287.768 10 0 59369 63000.00000 0 2102045.609 -25188600.174 3404880.267 10 0 59369 63900.00000 0 1990027.292 -25427705.997 206295.265 10 0 59369 64800.00000 0 1842865.308 -25264431.344 -2996300.097 10 0 59369 65700.00000 0 1715585.782 -24700357.049 -6140687.382 10 0 59369 66600.00000 0 1661836.431 -23750281.614 -9165808.056 10 0 59369 67500.00000 0 1731374.911 -22441642.305 -12012949.630 10 0 59369 68400.00000 0 1967726.740 -20813425.883 -14626883.531 10 0 59369 69300.00000 0 2406112.113 -18914615.265 -16956932.573 10 0 59369 70200.00000 0 3071729.319 -16802237.573 -18957947.733 10 0 59369 71100.00000 0 3978467.264 -14539095.402 -20591175.951 10 0 59369 72000.00000 0 5128101.378 -12191275.997 -21825002.894 10 0 59369 72900.00000 0 6510006.996 -9825541.779 -22635557.305 10 0 59369 73800.00000 0 8101402.657 -7506710.156 -23007166.216 10 0 59369 74700.00000 0 9868113.790 -5295130.687 -22932653.000 10 0 59369 75600.00000 0 11765825.763 -3244363.273 -22413473.173 10 0 59369 76500.00000 0 13741775.081 -1399152.507 -21459685.654 10 0 59369 77400.00000 0 15736809.341 206218.863 -20089760.028 10 0 59369 78300.00000 0 17687731.294 1549130.221 -18330223.244 10 0 59369 79200.00000 0 19529830.464 2619328.319 -16215151.969 10 0 59369 80100.00000 0 21199497.669 3419109.007 -13785519.648 10 0 59369 81000.00000 0 22636814.050 3962968.717 -11088410.015 10 0 59369 81900.00000 0 23788006.966 4276740.986 -8176111.391 10 0 59369 82800.00000 0 24607670.073 4396254.697 -5105108.602 10 0 59369 83700.00000 0 25060654.506 4365570.873 -1934991.509 10 0 59369 84600.00000 0 25123551.284 4234872.667 1272699.145 10 0 59369 85500.00000 0 24785702.079 4058097.943 4455666.085 10 0 59370 0.00000 0 24049695.282 3890414.939 7552066.665 10 0 59370 900.00000 0 22931325.148 3785648.556 10501717.410 10 0 59370 1800.00000 0 21459015.883 3793765.968 13247267.052 10 0 59370 2700.00000 0 19672732.511 3958530.348 15735315.985 10 0 59370 3600.00000 0 17622424.967 4315421.217 17917459.101 10 0 59370 4500.00000 0 15366069.227 4889911.606 19751231.540 10 0 59370 5400.00000 0 12967387.415 5696175.425 21200938.706 10 0 59370 6300.00000 0 10493341.820 6736281.016 22238354.219 10 0 59370 7200.00000 0 8011507.376 7999906.049 22843272.094 10 0 59370 8100.00000 0 5587432.049 9464587.020 23003902.412 10 0 59370 9000.00000 0 3282094.962 11096494.064 22717102.735 10 0 59370 9900.00000 0 1149568.049 12851699.538 21988440.718 10 0 59370 10800.00000 0 -765021.775 14677888.041 20832086.623 10 0 59370 11700.00000 0 -2427145.505 16516436.857 19270537.673 10 0 59370 12600.00000 0 -3814071.723 18304779.959 17334179.480 10 0 59370 13500.00000 0 -4915563.984 19978956.722 15060692.952 10 0 59370 14400.00000 0 -5734047.887 21476238.436 12494318.143 10 0 59370 15300.00000 0 -6284242.229 22737722.229 9684989.485 10 0 59370 16200.00000 0 -6592271.236 23710783.264 6687359.430 10 0 59370 17100.00000 0 -6694296.917 24351281.927 3559729.856 10 0 59370 18000.00000 0 -6634730.729 24625432.993 362912.643 10 0 59370 18900.00000 0 -6464101.658 24511258.079 -2840957.808 10 0 59370 19800.00000 0 -6236672.197 23999560.350 -5989636.385 10 0 59370 20700.00000 0 -6007904.221 23094380.678 -9021979.144 10 0 59370 21600.00000 0 -5831882.883 21812916.412 -11879131.295 10 0 59370 22500.00000 0 -5758808.137 20184906.514 -14505668.010 10 0 59370 23400.00000 0 -5832660.274 18251509.280 -16850665.877 10 0 59370 24300.00000 0 -6089138.220 16063719.869 -18868684.604 10 0 59370 25200.00000 0 -6553957.550 13680393.913 -20520640.565 10 0 59370 26100.00000 0 -7241579.847 11165959.613 -21774556.025 10 0 59370 27000.00000 0 -8154426.812 8587913.230 -22606170.538 10 0 59370 27900.00000 0 -9282612.286 6014201.477 -22999403.620 10 0 59370 28800.00000 0 -10604203.678 3510598.709 -22946660.584 10 0 59370 29700.00000 0 -12086002.446 1138186.641 -22448976.284 10 0 59370 30600.00000 0 -13684811.772 -1048960.152 -21515994.338 10 0 59370 31500.00000 0 -15349139.389 -3005788.129 -20165782.263 10 0 59370 32400.00000 0 -17021265.503 -4697895.856 -18424485.818 10 0 59370 33300.00000 0 -18639590.537 -6102715.688 -16325828.636 10 0 59370 34200.00000 0 -20141165.468 -7210197.891 -13910466.048 10 0 59370 35100.00000 0 -21464299.837 -8022969.689 -11225204.759 10 0 59370 36000.00000 0 -22551138.787 -8555963.375 -8322102.556 10 0 59370 36900.00000 0 -23350101.326 -8835529.569 -5257464.769 10 0 59370 37800.00000 0 -23818077.465 -8898073.440 -2090756.355 10 0 59370 38700.00000 0 -23922291.473 -8788271.607 1116549.713 10 0 59370 39600.00000 0 -23641752.290 -8556945.319 4302165.350 10 0 59370 40500.00000 0 -22968229.214 -8258680.090 7404198.308 10 0 59370 41400.00000 0 -21906710.772 -7949292.879 10362357.326 10 0 59370 42300.00000 0 -20475326.414 -7683254.443 13119127.481 10 0 59370 43200.00000 0 -18704733.144 -7511176.557 15620892.521 10 0 59370 44100.00000 0 -16636991.840 -7477471.170 17818981.858 10 0 59370 45000.00000 0 -14323979.519 -7618281.264 19670621.423 10 0 59370 45900.00000 0 -11825403.275 -7959771.794 21139769.648 10 0 59370 46800.00000 0 -9206498.290 -8516853.794 22197822.142 10 0 59370 47700.00000 0 -6535505.653 -9292396.457 22824171.234 10 0 59370 48600.00000 0 -3881034.769 -10276961.360 23006609.497 10 0 59370 49500.00000 0 -1309419.928 -11449070.967 22741569.351 10 0 59370 50400.00000 0 1117819.130 -12776000.999 22034194.044 10 0 59370 51300.00000 0 3346307.320 -14215064.060 20898238.529 10 0 59370 52200.00000 0 5330838.474 -15715331.237 19355802.019 10 0 59370 53100.00000 0 7037009.922 -17219719.662 17436897.282 10 0 59370 54000.00000 0 8442400.095 -18667358.574 15178864.914 10 0 59370 54900.00000 0 9537240.996 -19996134.399 12625643.909 10 0 59370 55800.00000 0 10324558.589 -21145307.662 9826912.807 10 0 59370 56700.00000 0 10819776.724 -22058091.325 6837118.359 10 0 59370 57600.00000 0 11049802.810 -22684081.681 3714410.937 10 0 59370 58500.00000 0 11051635.355 -22981439.061 519508.014 10 0 59370 59400.00000 0 10870553.752 -22918726.218 -2685491.563 10 0 59370 60300.00000 0 10557968.244 -22476326.761 -5838318.820 10 0 59370 61200.00000 0 10169022.227 -21647383.854 -8877747.171 10 0 59370 62100.00000 0 9760049.348 -20438219.718 -11744782.185 10 0 59370 63000.00000 0 9385993.658 -18868218.426 -14383805.311 10 0 59370 63900.00000 0 9097902.278 -16969177.056 -16743649.252 10 0 59370 64800.00000 0 8940596.629 -14784152.491 -18778584.545 10 0 59370 65700.00000 0 8950620.365 -12365852.009 -20449198.791 10 0 59370 66600.00000 0 9154550.256 -9774634.713 -21723152.297 10 0 59370 67500.00000 0 9567740.787 -7076206.568 -22575796.451 10 0 59370 68400.00000 0 10193555.026 -4339104.210 -22990643.849 10 0 59370 69300.00000 0 11023113.937 -1632071.184 -22959681.896 10 0 59370 70200.00000 0 12035574.809 978565.704 -22483524.511 10 0 59370 71100.00000 0 13198927.520 3431412.419 -21571399.343 10 0 59370 72000.00000 0 14471275.920 5672313.035 -20240970.815 10 0 59370 72900.00000 0 15802551.510 7656350.129 -18518002.130 10 0 59370 73800.00000 0 17136588.592 9349458.442 -16435862.186 10 0 59370 74700.00000 0 18413474.892 10729585.759 -14034886.207 10 0 59370 75600.00000 0 19572079.975 11787353.685 -11361601.578 10 0 59370 76500.00000 0 20552655.957 12526191.505 -8467832.945 10 0 59370 77400.00000 0 21299401.798 12961938.238 -5409703.280 10 0 59370 78300.00000 0 21762883.308 13121929.992 -2246549.598 10 0 59370 79200.00000 0 21902206.719 13043611.369 960226.049 10 0 59370 80100.00000 0 21686853.803 12772729.852 4148347.955 10 0 59370 81000.00000 0 21098100.321 12361189.604 7255877.301 10 0 59370 81900.00000 0 20129956.992 11864655.734 10222418.057 10 0 59370 82800.00000 0 18789592.058 11340010.620 12990294.270 10 0 59370 83700.00000 0 17097216.414 10842770.368 15505675.418 10 0 59370 84600.00000 0 15085434.747 10424571.166 17719627.510 10 0 59370 85500.00000 0 12798088.815 10130832.413 19589069.015 10 0 59371 0.00000 0 10288640.222 9998695.937 21077612.774 10 0 59371 900.00000 0 7618159.153 10055329.371 22156277.486 10 0 59371 1800.00000 0 4853002.953 10316664.817 22804054.464 10 0 59371 2700.00000 0 2062280.085 10786628.581 23008319.030 10 0 59371 3600.00000 0 -684795.089 11456892.993 22765078.294 10 0 59371 4500.00000 0 -3321546.874 12307162.786 22079050.435 10 0 59371 5400.00000 0 -5786372.666 13305983.819 20963573.950 10 0 59371 6300.00000 0 -8025062.136 14412040.737 19440348.407 10 0 59371 7200.00000 0 -9992805.048 15575889.117 17539011.638 10 0 59371 8100.00000 0 -11655804.732 16742049.335 15296561.460 10 0 59371 9000.00000 0 -12992430.714 17851373.908 12756633.029 10 0 59371 9900.00000 0 -13993863.301 18843588.333 9968646.034 10 0 59371 10800.00000 0 -14664204.427 19659897.991 6986838.463 10 0 59371 11700.00000 0 -15020051.549 20245550.751 3869206.092 10 0 59371 12600.00000 0 -15089554.028 20552246.672 676368.945 10 0 59371 13500.00000 0 -14910993.371 20540292.724 -2529612.645 10 0 59371 14400.00000 0 -14530948.765 20180411.232 -5686448.673 10 0 59371 15300.00000 0 -14002126.750 19455125.524 -8732832.568 10 0 59371 16200.00000 0 -13380947.911 18359664.245 -11609632.699 10 0 59371 17100.00000 0 -12724993.421 16902346.141 -14261038.959 10 0 59371 18000.00000 0 -12090419.822 15104429.140 -16635642.032 10 0 59371 18900.00000 0 -11529451.383 12999429.946 -18687424.804 10 0 59371 19800.00000 0 -11088055.664 10631942.402 -20376647.287 10 0 59371 20700.00000 0 -10803899.853 8056003.716 -21670608.644 10 0 59371 21600.00000 0 -10704673.376 5333076.092 -22544272.575 10 0 59371 22500.00000 0 -10806846.726 2529726.952 -22980744.882 10 0 59371 23400.00000 0 -11114918.165 -284896.738 -22971594.853 10 0 59371 24300.00000 0 -11621179.570 -3041696.442 -22517014.900 10 0 59371 25200.00000 0 -12306011.198 -5674244.655 -21625815.780 10 0 59371 26100.00000 0 -13138693.164 -8121294.673 -20315257.536 10 0 59371 27000.00000 0 -14078700.062 -10329074.848 -18610719.194 10 0 59371 27900.00000 0 -15077425.075 -12253273.376 -16545212.999 10 0 59371 28800.00000 0 -16080261.950 -13860632.214 -14158751.903 10 0 59371 29700.00000 0 -17028958.175 -15130084.757 -11497581.612 10 0 59371 30600.00000 0 -17864141.096 -16053390.686 -8613291.198 10 0 59371 31500.00000 0 -18527911.169 -16635241.984 -5561818.783 10 0 59371 32400.00000 0 -18966393.248 -16892836.130 -2402370.901 10 0 59371 33300.00000 0 -19132138.321 -16854934.843 803723.821 10 0 59371 34200.00000 0 -18986273.818 -16560448.108 3994204.523 10 0 59371 35100.00000 0 -18500311.036 -16056603.493 7107088.279 10 0 59371 36000.00000 0 -17657532.442 -15396778.307 10081876.724 10 0 59371 36900.00000 0 -16453898.995 -14638086.304 12860735.234 10 0 59371 37800.00000 0 -14898437.903 -13838821.266 15389621.261 10 0 59371 38700.00000 0 -13013092.974 -13055865.851 17619339.476 10 0 59371 39600.00000 0 -10832042.462 -12342175.553 19506502.706 10 0 59371 40500.00000 0 -8400511.632 -11744444.453 21014379.765 10 0 59371 41400.00000 0 -5773128.482 -11301051.671 22113613.519 10 0 59371 42300.00000 0 -3011890.378 -11040375.548 22782795.073 10 0 59371 43200.00000 0 -183825.512 -10979546.974 23008882.926 10 0 59371 44100.00000 0 2641554.100 -11123694.709 22787458.899 10 0 59371 45000.00000 0 5394902.492 -11465714.744 22122815.802 10 0 59371 45900.00000 0 8009682.756 -11986573.619 21027875.032 10 0 59371 46800.00000 0 10424693.607 -12656133.031 19523935.570 10 0 59371 47700.00000 0 12586374.693 -13434461.022 17640259.083 10 0 59371 48600.00000 0 14450795.094 -14273574.364 15413499.067 10 0 59371 49500.00000 0 15985242.737 -15119538.512 12886984.995 10 0 59371 50400.00000 0 17169349.017 -15914836.113 10109875.530 10 0 59371 51300.00000 0 17995702.606 -16600903.694 7136197.404 10 0 59371 52200.00000 0 18469927.942 -17120728.831 4023789.030 10 0 59371 53100.00000 0 18610226.386 -17421397.510 833169.986 10 0 59371 54000.00000 0 18446400.925 -17456483.493 -2373641.029 10 0 59371 54900.00000 0 18018406.945 -17188178.218 -5534336.134 10 0 59371 55800.00000 0 17374491.644 -16589070.872 -8587531.855 10 0 59371 56700.00000 0 16569001.854 -15643503.221 -11473962.311 10 0 59371 57600.00000 0 15659953.753 -14348441.778 -14137628.569 10 0 59371 58500.00000 0 14706467.704 -12713830.452 -16526881.769 10 0 59371 59400.00000 0 13766176.676 -10762408.613 -18595419.320 10 0 59371 60300.00000 0 12892717.390 -8529001.833 -20303175.469 10 0 59371 61200.00000 0 12133409.419 -6059314.622 -21617089.698 10 0 59371 62100.00000 0 11527219.214 -3408274.855 -22511739.061 10 0 59371 63000.00000 0 11103093.794 -637998.027 -22969823.185 10 0 59371 63900.00000 0 10878733.265 2184544.965 -22982493.402 10 0 59371 64800.00000 0 10859852.900 4990060.904 -22549520.355 10 0 59371 65700.00000 0 11039965.195 7709564.443 -21679297.228 10 0 59371 66600.00000 0 11400690.726 10276997.611 -20388678.627 10 0 59371 67500.00000 0 11912584.734 12631731.383 -18702657.975 10 0 59371 68400.00000 0 12536444.968 14720846.779 -16653889.115 10 0 59371 69300.00000 0 13225046.270 16501101.756 -14282060.653 10 0 59371 70200.00000 0 13925229.502 17940502.977 -11633134.252 10 0 59371 71100.00000 0 14580257.464 19019417.788 -8758460.748 10 0 59371 72000.00000 0 15132338.980 19731180.376 -5713790.500 10 0 59371 72900.00000 0 15525214.978 20082167.204 -2558196.513 10 0 59371 73800.00000 0 15706697.340 20091338.722 647069.196 10 0 59371 74700.00000 0 15631052.960 19789266.764 3839763.835 10 0 59371 75600.00000 0 15261131.738 19216688.885 6957863.474 10 0 59371 76500.00000 0 14570147.575 18422650.509 9940770.362 10 0 59371 77400.00000 0 13543036.013 17462313.470 12730493.912 10 0 59371 78300.00000 0 12177329.819 16394523.605 15272781.987 10 0 59371 79200.00000 0 10483514.053 15279240.210 17518180.040 10 0 59371 80100.00000 0 8484844.110 14174936.137 19422997.057 10 0 59371 81000.00000 0 6216632.841 13136078.406 20950159.269 10 0 59371 81900.00000 0 3725035.088 12210795.772 22069934.870 10 0 59371 82800.00000 0 1065379.266 11438831.716 22760515.496 10 0 59371 83700.00000 0 -1699885.500 10849869.181 23008443.152 10 0 59371 84600.00000 0 -4503542.049 10462297.619 22808874.277 10 0 59371 85500.00000 0 -7276160.269 10282474.230 22165675.717 10 0 59372 0.00000 0 -9948748.869 10304510.320 21091350.719 10 0 59372 900.00000 0 -12455393.900 10510591.805 19606796.013 10 0 59372 1800.00000 0 -14735774.614 10871819.451 17740895.054 10 0 59372 2700.00000 0 -16737451.634 11349534.104 15529954.491 10 0 59372 3600.00000 0 -18417833.453 11897069.464 13016995.273 10 0 59372 4500.00000 0 -19745738.645 12461858.604 10250911.943 10 0 59372 5400.00000 0 -20702489.681 12987804.300 7285516.774 10 0 59372 6300.00000 0 -21282493.287 13417812.372 4178487.585 10 0 59372 7200.00000 0 -21493284.025 13696380.196 990240.341 10 0 59372 8100.00000 0 -21355030.587 13772130.173 -2217250.954 10 0 59372 9000.00000 0 -20899526.883 13600180.386 -5381663.456 10 0 59372 9900.00000 0 -20168711.767 13144251.613 -8441539.523 10 0 59372 10800.00000 0 -19212781.068 12378421.272 -11337481.536 10 0 59372 11700.00000 0 -18087972.549 11288449.841 -14013304.006 10 0 59372 12600.00000 0 -16854117.918 9872623.606 -16417120.484 10 0 59372 13500.00000 0 -15572065.430 8142077.936 -18502344.520 10 0 59372 14400.00000 0 -14301081.560 6120587.131 -20228585.818 10 0 59372 15300.00000 0 -13096340.672 3843829.186 -21562424.987 10 0 59372 16200.00000 0 -12006607.473 1358155.540 -22478052.816 10 0 59372 17100.00000 0 -11072208.568 -1281083.799 -22957762.726 10 0 59372 18000.00000 0 -10323377.174 -4011590.950 -22992287.662 10 0 59372 18900.00000 0 -9779039.300 -6766462.710 -22580975.682 10 0 59372 19800.00000 0 -9446091.270 -9476729.034 -21731801.219 10 0 59372 20700.00000 0 -9319198.149 -12073983.363 -20461211.924 10 0 59372 21600.00000 0 -9381120.955 -14492997.095 -18793813.814 10 0 59372 22500.00000 0 -9603558.700 -16674210.899 -16761900.284 10 0 59372 23400.00000 0 -9948469.907 -18566000.334 -14404833.354 10 0 59372 24300.00000 0 -10369818.220 -20126622.519 -11768288.291 10 0 59372 25200.00000 0 -10815668.935 -21325763.370 -8903375.317 10 0 59372 26100.00000 0 -11230548.391 -22145621.183 -5865654.658 10 0 59372 27000.00000 0 -11557966.881 -22581481.589 -2714063.451 10 0 59372 27900.00000 0 -11742998.524 -22641759.801 490225.174 10 0 59372 28800.00000 0 -11734808.799 -22347508.394 3684988.688 10 0 59372 29700.00000 0 -11489022.374 -21731411.353 6808164.339 10 0 59372 30600.00000 0 -10969830.280 -20836306.677 9799057.135 10 0 59372 31500.00000 0 -10151746.291 -19713299.757 12599522.616 10 0 59372 32400.00000 0 -9020936.973 -18419547.035 15155101.072 10 0 59372 33300.00000 0 -7576067.765 -17015803.435 17416080.643 10 0 59372 34200.00000 0 -5828627.886 -15563837.020 19338468.206 10 0 59372 35100.00000 0 -3802718.727 -14123819.895 20884848.927 10 0 59372 36000.00000 0 -1534312.985 -12751805.197 22025117.572 10 0 59372 36900.00000 0 929985.889 -11497396.436 22737067.247 10 0 59372 37800.00000 0 3534633.396 -10401707.075 23006824.088 10 0 59372 38700.00000 0 6217213.499 -9495696.000 22829119.453 10 0 59372 39600.00000 0 8910802.441 -8798948.598 22207394.214 10 0 59372 40500.00000 0 11546529.137 -8318954.298 21153733.086 10 0 59372 41400.00000 0 14056226.014 -8050910.511 19688630.066 10 0 59372 42300.00000 0 16375060.115 -7978060.654 17840589.404 10 0 59372 43200.00000 0 18444035.137 -8072551.359 15645569.705 10 0 59372 44100.00000 0 20212260.237 -8296771.997 13146281.819 10 0 59372 45000.00000 0 21638891.079 -8605119.191 10391354.271 10 0 59372 45900.00000 0 22694662.365 -8946110.912 7434382.598 10 0 59372 46800.00000 0 23362948.225 -9264759.901 4332881.410 10 0 59372 47700.00000 0 23640306.712 -9505105.095 1147160.137 10 0 59372 48600.00000 0 23536486.518 -9612793.088 -2060855.038 10 0 59372 49500.00000 0 23073896.707 -9537599.552 -5228829.543 10 0 59372 50400.00000 0 22286562.964 -9235783.247 -8295234.806 10 0 59372 51300.00000 0 21218615.458 -8672172.517 -11200544.588 10 0 59372 52200.00000 0 19922373.031 -7821895.616 -13888389.757 10 0 59372 53100.00000 0 18456105.154 -6671681.535 -16306648.926 10 0 59372 54000.00000 0 16881566.303 -5220676.171 -18408454.118 10 0 59372 54900.00000 0 15261406.501 -3480739.110 -20153092.515 10 0 59372 55800.00000 0 13656566.520 -1476208.156 -21506787.510 10 0 59372 56700.00000 0 12123766.377 756859.202 -22443344.936 10 0 59372 57600.00000 0 10713191.409 3171936.523 -22944652.920 10 0 59372 58500.00000 0 9466471.710 5713720.180 -23001026.531 10 0 59372 59400.00000 0 8415038.207 8320192.897 -22611391.337 10 0 59372 60300.00000 0 7578922.897 10924974.653 -21783302.698 10 0 59372 61200.00000 0 6966052.340 13459864.537 -20532800.573 10 0 59372 62100.00000 0 6572063.041 15857469.382 -18884102.431 10 0 59372 63000.00000 0 6380645.745 18053811.231 -16869139.668 10 0 59372 63900.00000 0 6364403.796 19990806.238 -14526945.814 10 0 59372 64800.00000 0 6486189.301 21618512.713 -11902907.483 10 0 59372 65700.00000 0 6700860.853 22897055.194 -9047891.648 10 0 59372 66600.00000 0 6957388.842 23798144.678 -6017265.506 10 0 59372 67500.00000 0 7201219.630 24306131.474 -2869827.191 10 0 59372 68400.00000 0 7376798.660 24418546.448 333332.347 10 0 59372 69300.00000 0 7430145.670 24146107.930 3530014.217 10 0 59372 70200.00000 0 7311372.617 23512193.698 6658120.160 10 0 59372 71100.00000 0 6977037.132 22551800.037 9656861.111 10 0 59372 72000.00000 0 6392230.985 21310031.420 12467941.719 10 0 59372 72900.00000 0 5532314.114 19840184.203 15036697.404 10 0 59372 73800.00000 0 4384219.519 18201504.886 17313161.401 10 0 59372 74700.00000 0 2947272.543 16456717.210 19253040.564 10 0 59372 75600.00000 0 1233488.347 14669422.049 20818580.725 10 0 59372 76500.00000 0 -732666.568 12901479.314 21979304.601 10 0 59372 77400.00000 0 -2915040.319 11210481.772 22712607.758 10 0 59372 78300.00000 0 -5267058.488 9647426.666 23004201.033 10 0 59372 79200.00000 0 -7733432.377 8254682.525 22848390.809 10 0 59372 80100.00000 0 -10252242.302 7064336.163 22248191.591 10 0 59372 81000.00000 0 -12757309.902 6096988.657 21215268.666 10 0 59372 81900.00000 0 -15180761.112 5361050.197 19769711.755 10 0 59372 82800.00000 0 -17455673.251 4852562.708 17939643.935 10 0 59372 83700.00000 0 -19518696.035 4555556.780 15760673.250 10 0 59372 84600.00000 0 -21312537.244 4442926.901 13275197.540 10 0 59372 85500.00000 0 -22788209.165 4477787.065 10531576.074 99